W4RAH-1 Weather Reports


Display with metric or nautical units.
time (UTC)temp
F
wind
direction
speed
MPH
gust
MPH
rain 1hr
in
rain 24hr
in
rain mn
in
humidity
%
barometer
mb
20260505201329 83 226 8.0 17.0 0.00 0.00 0.00 37 1009.0
20260505200835 83 254 8.0 22.0 0.00 0.00 0.00 38 1009.0
20260505200301 83 194 7.0 20.0 0.00 0.00 0.00 35 1009.0
20260505195336 83 201 13.0 19.0 0.00 0.00 0.00 37 1009.0
20260505194822 83 217 4.0 16.0 0.00 0.00 0.00 39 1009.1
20260505194329 82 223 8.0 16.0 0.00 0.00 0.00 37 1009.1
20260505193834 82 180 7.0 22.0 0.00 0.00 0.00 36 1009.2
20260505193326 82 198 12.0 22.0 0.00 0.00 0.00 38 1009.2
20260505192832 82 201 6.0 19.0 0.00 0.00 0.00 36 1009.1
20260505192319 83 199 8.0 19.0 0.00 0.00 0.00 36 1009.2
20260505191826 83 216 8.0 19.0 0.00 0.00 0.00 40 1009.4
20260505191333 83 200 7.0 19.0 0.00 0.00 0.00 36 1009.4
20260505190800 82 219 4.0 18.0 0.00 0.00 0.00 38 1009.6
20260505190327 82 219 4.0 18.0 0.00 0.00 0.00 38 1009.6
20260505185832 83 254 5.0 18.0 0.00 0.00 0.00 38 1009.7
20260505185321 83 183 7.0 15.0 0.00 0.00 0.00 40 1009.8
20260505184826 83 215 6.0 15.0 0.00 0.00 0.00 37 1010.0
20260505184318 83 204 7.0 14.0 0.00 0.00 0.00 43 1010.0
20260505183805 83 207 9.0 17.0 0.00 0.00 0.00 43 1010.1
20260505182816 83 202 5.0 19.0 0.00 0.00 0.00 39 1010.2
20260505182325 83 200 6.0 19.0 0.00 0.00 0.00 37 1010.3
20260505181832 83 210 5.0 16.0 0.00 0.00 0.00 40 1010.2
20260505181258 82 255 3.0 17.0 0.00 0.00 0.00 37 1010.4
20260505180332 81 257 6.0 19.0 0.00 0.00 0.00 42 1010.5
20260505175822 80 223 8.0 19.0 0.00 0.00 0.00 39 1010.6
20260505175330 80 197 7.0 17.0 0.00 0.00 0.00 42 1010.7
20260505174836 80 202 10.0 17.0 0.00 0.00 0.00 41 1010.7
20260505174322 81 216 4.0 13.0 0.00 0.00 0.00 38 1010.8
20260505173828 82 209 2.0 13.0 0.00 0.00 0.00 36 1010.8
20260505173336 83 201 4.0 14.0 0.00 0.00 0.00 42 1010.9
20260505172803 83 205 6.0 18.0 0.00 0.00 0.00 39 1010.9
20260505171756 82 249 7.0 15.0 0.00 0.00 0.00 39 1011.0
20260505170833 82 267 5.0 16.0 0.00 0.00 0.00 39 1011.1
20260505170320 82 219 9.0 16.0 0.00 0.00 0.00 46 1011.1
20260505165827 82 228 9.0 15.0 0.00 0.00 0.00 39 1011.3
20260505165334 82 204 2.0 12.0 0.00 0.00 0.00 39 1011.3
20260505164820 82 234 6.0 15.0 0.00 0.00 0.00 41 1011.4
20260505164328 82 213 2.0 16.0 0.00 0.00 0.00 42 1011.5
20260505163834 81 209 4.0 16.0 0.00 0.00 0.00 44 1011.5
20260505163321 81 223 4.0 15.0 0.00 0.00 0.00 43 1011.6
20260505162752 81 205 6.0 14.0 0.00 0.00 0.00 41 1011.7
20260505161824 81 202 5.0 14.0 0.00 0.00 0.00 44 1011.7
20260505161333 80 215 4.0 13.0 0.00 0.00 0.00 42 1011.9
20260505160819 80 206 5.0 17.0 0.00 0.00 0.00 45 1011.9
20260505160305 79 111 6.0 14.0 0.00 0.00 0.00 42 1012.0
20260505153337 77 254 7.0 15.0 0.00 0.00 0.00 44 1012.2
20260505152821 77 242 7.0 18.0 0.00 0.00 0.00 46 1012.2
20260505152330 77 230 8.0 19.0 0.00 0.00 0.00 47 1012.2
20260505151836 76 208 8.0 19.0 0.00 0.00 0.00 47 1012.2
20260505151323 76 194 6.0 16.0 0.00 0.00 0.00 48 1012.2
20260505150831 76 251 9.0 13.0 0.00 0.00 0.00 47 1012.1
20260505150257 76 226 5.0 12.0 0.00 0.00 0.00 51 1012.1
20260505140305 73 219 3.0 10.0 0.00 0.00 0.00 54 1012.1
20260505130307 66 219 0.0 0.0 0.00 0.00 0.00 67 1012.6
20260505124829 64 227 0.0 0.0 0.00 0.00 0.00 72 1012.7
20260505124256 62 269 0.0 0.0 0.00 0.00 0.00 75 1012.8
20260505123252 60 204 0.0 0.0 0.00 0.00 0.00 78 1012.9
20260505122328 59 213 0.0 0.0 0.00 0.00 0.00 81 1012.9
20260505121814 58 210 0.0 0.0 0.00 0.00 0.00 84 1012.9
20260505120803 56 214 0.0 0.0 0.00 0.00 0.00 86 1012.9
20260505115836 56 221 0.0 0.0 0.00 0.00 0.00 86 1012.8
20260505115324 55 192 0.0 0.0 0.00 0.00 0.00 87 1012.8
20260505114754 54 221 0.0 0.0 0.00 0.00 0.00 87 1012.7
20260505113827 54 227 0.0 0.0 0.00 0.00 0.00 87 1012.6
20260505113336 54 218 0.0 0.0 0.00 0.00 0.00 87 1012.5
20260505112821 54 210 0.0 0.0 0.00 0.00 0.00 87 1012.5
20260505112330 54 217 0.0 0.0 0.00 0.00 0.00 87 1012.4
20260505111836 53 211 0.0 0.0 0.00 0.00 0.00 87 1012.3
20260505111301 53 221 1.0 5.0 0.00 0.00 0.00 87 1012.2
20260505110336 53 226 0.0 5.0 0.00 0.00 0.00 87 1012.1
20260505101819 53 222 0.0 5.0 0.00 0.00 0.00 84 1011.6
20260505101328 53 209 1.0 5.0 0.00 0.00 0.00 84 1011.6
20260505100817 53 215 2.0 4.0 0.00 0.00 0.00 84 1011.5
20260505100325 54 94 2.0 3.0 0.00 0.00 0.00 83 1011.5
20260505095831 54 94 0.0 3.0 0.00 0.00 0.00 83 1011.5
20260505095319 54 94 2.0 4.0 0.00 0.00 0.00 83 1011.5
20260505094805 55 108 2.0 4.0 0.00 0.00 0.00 81 1011.6
20260505093830 55 71 3.0 4.0 0.00 0.00 0.00 81 1011.6
20260505093337 55 224 0.0 4.0 0.00 0.00 0.00 80 1011.4
20260505092823 55 224 0.0 4.0 0.00 0.00 0.00 81 1011.4
20260505092331 55 224 1.0 5.0 0.00 0.00 0.00 80 1011.4
20260505091821 55 217 4.0 6.0 0.00 0.00 0.00 81 1011.3
20260505091328 55 220 2.0 5.0 0.00 0.00 0.00 80 1011.3
20260505090834 56 215 0.0 5.0 0.00 0.00 0.00 80 1011.4
20260505090322 56 219 0.0 2.0 0.00 0.00 0.00 81 1011.3
20260505085829 56 218 0.0 3.0 0.00 0.00 0.00 81 1011.3
20260505085254 55 218 0.0 0.0 0.00 0.00 0.00 81 1011.3
20260505084330 55 218 0.0 0.0 0.00 0.00 0.00 80 1011.2
20260505083756 56 218 0.0 2.0 0.00 0.00 0.00 80 1011.2
20260505082833 56 218 0.0 2.0 0.00 0.00 0.00 80 1011.2
20260505082320 56 219 0.0 0.0 0.00 0.00 0.00 80 1011.2
20260505081826 56 218 0.0 0.0 0.00 0.00 0.00 79 1011.1
20260505081334 56 219 0.0 1.0 0.00 0.00 0.00 79 1011.1
20260505080820 56 219 0.0 2.0 0.00 0.00 0.00 78 1011.2
20260505080328 56 218 0.0 1.0 0.00 0.00 0.00 78 1011.1
20260505075833 56 219 0.0 5.0 0.00 0.00 0.00 79 1011.1
20260505075321 56 200 1.0 6.0 0.00 0.00 0.00 79 1011.0
20260505074827 56 222 3.0 6.0 0.00 0.00 0.00 79 1010.9
20260505074318 56 211 1.0 6.0 0.00 0.00 0.00 79 1010.9
20260505073825 56 199 0.0 7.0 0.00 0.00 0.00 79 1010.9
20260505073332 56 223 4.0 7.0 0.00 0.00 0.00 78 1010.9
20260505072818 56 214 0.0 4.0 0.00 0.00 0.00 77 1010.9
20260505072326 57 223 2.0 4.0 0.00 0.00 0.00 77 1011.0
20260505071832 57 222 0.0 2.0 0.00 0.00 0.00 77 1010.9
20260505071320 57 222 0.0 2.0 0.00 0.00 0.00 76 1011.0
20260505070806 57 222 0.0 0.0 0.00 0.00 0.00 75 1010.9
20260505065820 58 222 0.0 0.0 0.00 0.00 0.00 75 1010.9
20260505065328 58 222 0.0 0.0 0.00 0.00 0.00 75 1010.9
20260505064834 58 222 0.0 0.0 0.00 0.00 0.00 75 1010.9
20260505064322 58 222 0.0 0.0 0.00 0.00 0.00 75 1010.9
20260505063828 58 222 0.0 5.0 0.00 0.00 0.00 74 1011.0
20260505063335 58 227 2.0 5.0 0.00 0.00 0.00 74 1011.0
20260505062821 58 223 0.0 0.0 0.00 0.00 0.00 74 1011.0
20260505062329 58 223 0.0 0.0 0.00 0.00 0.00 73 1011.0
20260505061835 58 223 0.0 0.0 0.00 0.00 0.00 73 1011.0
20260505061322 59 223 0.0 0.0 0.00 0.00 0.00 73 1011.0
20260505060829 59 223 0.0 2.0 0.00 0.00 0.00 73 1011.0
20260505060320 59 223 1.0 2.0 0.00 0.00 0.00 73 1011.0
20260505055827 59 223 0.0 0.0 0.00 0.00 0.00 73 1011.0
20260505055334 59 223 0.0 2.0 0.00 0.00 0.00 73 1011.0
20260505054820 59 223 0.0 2.0 0.00 0.00 0.00 72 1011.0
20260505054327 59 223 0.0 2.0 0.00 0.00 0.00 72 1011.0
20260505053833 59 223 1.0 2.0 0.00 0.00 0.00 72 1010.9
20260505053321 60 223 0.0 1.0 0.00 0.00 0.00 71 1011.0
20260505052827 60 223 0.0 0.0 0.00 0.00 0.00 71 1011.0
20260505052335 60 223 0.0 0.0 0.00 0.00 0.00 71 1011.0
20260505051825 60 223 0.0 0.0 0.00 0.00 0.00 70 1011.0
20260505051333 60 223 0.0 1.0 0.00 0.00 0.00 70 1011.0
20260505050818 60 223 0.0 1.0 0.00 0.00 0.00 69 1011.0
20260505050327 61 223 0.0 3.0 0.00 0.00 0.00 69 1011.0
20260505041257 62 213 7.0 11.0 0.00 0.00 0.00 67 1011.1
20260505040333 62 207 5.0 10.0 0.00 0.00 0.00 67 1010.9
20260505035817 62 220 6.0 10.0 0.00 0.00 0.00 66 1011.0
20260505035327 62 180 4.0 9.0 0.00 0.00 0.00 66 1011.0
20260505034831 62 200 0.0 11.0 0.00 0.00 0.00 66 1011.0
20260505034323 62 216 7.0 10.0 0.00 0.00 0.00 65 1010.9
20260505033830 62 202 5.0 9.0 0.00 0.00 0.00 65 1011.0
20260505033337 62 220 5.0 10.0 0.00 0.00 0.00 64 1010.8
20260505032823 62 198 0.0 10.0 0.00 0.00 0.00 64 1010.8
20260505032330 63 209 5.0 10.0 0.00 0.00 0.00 63 1010.8
20260505031835 63 216 2.0 8.0 0.00 0.00 0.00 63 1010.9
20260505031323 63 225 2.0 9.0 0.00 0.00 0.00 63 1010.9
20260505030831 63 209 2.0 8.0 0.00 0.00 0.00 63 1011.0
20260505030255 63 207 4.0 8.0 0.00 0.00 0.00 62 1011.1
20260505025335 64 219 2.0 7.0 0.00 0.00 0.00 62 1011.1
20260505024821 64 209 3.0 7.0 0.00 0.00 0.00 61 1011.1
20260505024328 64 216 0.0 7.0 0.00 0.00 0.00 61 1011.1
20260505023835 64 217 0.0 8.0 0.00 0.00 0.00 60 1011.1
20260505023322 64 209 4.0 8.0 0.00 0.00 0.00 60 1011.1
20260505022828 64 219 5.0 9.0 0.00 0.00 0.00 60 1011.0
20260505022336 65 225 0.0 10.0 0.00 0.00 0.00 60 1010.9
20260505021821 65 214 4.0 10.0 0.00 0.00 0.00 59 1010.9
20260505021329 65 202 6.0 10.0 0.00 0.00 0.00 59 1010.9
20260505020820 65 221 4.0 10.0 0.00 0.00 0.00 59 1010.9
20260505020305 66 210 7.0 10.0 0.00 0.00 0.00 58 1010.9
20260505015319 66 214 5.0 10.0 0.00 0.00 0.00 57 1010.8
20260505014806 67 216 3.0 11.0 0.00 0.00 0.00 55 1010.7
20260505013818 67 207 2.0 10.0 0.00 0.00 0.00 55 1010.6
20260505013326 67 208 6.0 12.0 0.00 0.00 0.00 55 1010.6
20260505012831 67 211 6.0 12.0 0.00 0.00 0.00 54 1010.6
20260505012320 67 214 6.0 11.0 0.00 0.00 0.00 54 1010.4
20260505011830 67 214 5.0 16.0 0.00 0.00 0.00 54 1010.4
20260505011338 67 216 4.0 16.0 0.00 0.00 0.00 53 1010.4
20260505010824 68 213 4.0 10.0 0.00 0.00 0.00 53 1010.3
20260505010332 68 207 5.0 10.0 0.00 0.00 0.00 53 1010.3
20260505005759 68 198 4.0 16.0 0.00 0.00 0.00 52 1010.0
20260505004832 68 221 8.0 15.0 0.00 0.00 0.00 51 1010.0
20260505004257 69 211 5.0 15.0 0.00 0.00 0.00 50 1009.9
20260505003333 69 244 5.0 15.0 0.00 0.00 0.00 51 1009.9
20260505002822 69 225 6.0 14.0 0.00 0.00 0.00 50 1009.8
20260505002331 69 211 6.0 12.0 0.00 0.00 0.00 49 1009.9
20260505001757 69 194 6.0 13.0 0.00 0.00 0.00 48 1009.7
20260505000830 70 210 5.0 12.0 0.00 0.00 0.00 47 1009.7
20260505000338 70 203 4.0 12.0 0.00 0.00 0.00 47 1009.7
20260504235824 70 200 5.0 12.0 0.00 0.00 0.00 47 1009.7
20260504235309 70 208 6.0 14.0 0.00 0.00 0.00 46 1009.6
20260504234329 71 209 0.0 0.0 0.00 0.00 0.00 45 1009.6
20260504233834 71 221 0.0 0.0 0.00 0.00 0.00 46 1009.7
20260504233322 71 202 0.0 0.0 0.00 0.00 0.00 45 1009.7
20260504232827 71 219 0.0 0.0 0.00 0.00 0.00 45 1009.6
20260504232336 71 202 0.0 0.0 0.00 0.00 0.00 46 1009.6
20260504231821 71 163 0.0 0.0 0.00 0.00 0.00 44 1009.5
20260504231330 72 215 0.0 0.0 0.00 0.00 0.00 44 1009.5
20260504230756 72 222 0.0 0.0 0.00 0.00 0.00 43 1009.6
20260504225829 72 219 0.0 0.0 0.00 0.00 0.00 43 1009.6
20260504225320 72 178 0.0 0.0 0.00 0.00 0.00 42 1009.6
20260504224826 73 223 0.0 6.0 0.00 0.00 0.00 42 1009.6
20260504224334 73 198 1.0 10.0 0.00 0.00 0.00 41 1009.6
20260504223819 74 219 3.0 10.0 0.00 0.00 0.00 41 1009.5
20260504223328 74 196 4.0 10.0 0.00 0.00 0.00 41 1009.5
20260504222834 74 201 4.0 10.0 0.00 0.00 0.00 40 1009.5
20260504222321 74 211 4.0 11.0 0.00 0.00 0.00 40 1009.5
20260504221808 74 203 4.0 15.0 0.00 0.00 0.00 40 1009.7
20260504220805 75 219 5.0 12.0 0.00 0.00 0.00 39 1009.5
20260504215817 75 196 5.0 12.0 0.00 0.00 0.00 39 1009.5
20260504215326 75 193 6.0 13.0 0.00 0.00 0.00 41 1009.5
20260504214831 75 206 7.0 15.0 0.00 0.00 0.00 40 1009.4
20260504214318 75 234 6.0 13.0 0.00 0.00 0.00 40 1009.5
20260504213805 75 202 3.0 17.0 0.00 0.00 0.00 38 1009.4
20260504213332 75 202 3.0 17.0 0.00 0.00 0.00 38 1009.4
20260504212817 75 221 2.0 9.0 0.00 0.00 0.00 38 1009.5
20260504212326 75 219 3.0 9.0 0.00 0.00 0.00 40 1009.4
20260504211836 75 207 0.0 11.0 0.00 0.00 0.00 38 1009.5
20260504211320 76 211 3.0 11.0 0.00 0.00 0.00 37 1009.4
20260504210827 76 202 7.0 12.0 0.00 0.00 0.00 36 1009.5
20260504210334 77 196 4.0 11.0 0.00 0.00 0.00 37 1009.4
20260504205820 77 209 3.0 11.0 0.00 0.00 0.00 36 1009.4
20260504205328 78 198 3.0 11.0 0.00 0.00 0.00 38 1009.5
20260504204834 78 205 2.0 12.0 0.00 0.00 0.00 38 1009.5
20260504204322 77 191 6.0 12.0 0.00 0.00 0.00 39 1009.5
20260504203828 77 209 6.0 11.0 0.00 0.00 0.00 38 1009.6
20260504203258 77 207 6.0 16.0 0.00 0.00 0.00 39 1009.7
20260504202332 77 223 5.0 15.0 0.00 0.00 0.00 38 1009.8
20260504201818 77 176 5.0 14.0 0.00 0.00 0.00 38 1009.7